Location: C�an Torras
(41.5052°N, 1.9280°E)
Time: 08:26:17
(UTC+00:00)

IRS-1C Rocket - Visible Passes

Search period start: 11 May 2021 00:00
Search period end: 21 May 2021 00:00
Orbit: 800 x 806 km, 99.0° (Epoch: 10 May)

Date Brightness Start Highest point End Pass type
(mag) Time Alt. Az. Time Alt. Az. Time Alt. Az.
11 May 6.9 20:08:58 10° WSW 20:11:23 13° W 20:13:49 10° WNW visible
12 May 6.5 19:41:16 10° SSW 19:45:23 23° W 19:49:32 10° NW visible
15 May 6.8 20:05:24 10° WSW 20:08:10 14° W 20:10:57 10° WNW visible
16 May 6.3 19:37:54 10° SSW 19:42:11 25° W 19:46:29 10° NW visible
19 May 6.8 20:01:52 10° SW 20:04:58 16° W 20:08:03 10° NW visible
20 May 6.2 19:34:35 10° SSW 19:38:59 27° W 19:43:25 10° NW visible
